Location: Potomac
(46.8816°N, 113.5795°W)
Time: 09:09:42
(UTC+00:00)

UKube-1 - Pass Details

Date: 25 June 2022
Orbit: 608 x 615 km, 98.4° (Epoch: 14 August)

Event Time Altitude Azimuth Distance (km) Brightness Sun altitude
Rises 04:28:09 0° 29° (NNE) 2,898 ? -7.8°
Reaches altitude 10° 04:31:01 10° 50° (NE) 1,985 ? -8.2°
Maximum altitude 04:33:52 17° 92° (E) 1,562 ? -8.5°
Enters shadow 04:36:24 11° 130° (SE) 1,895 ? -8.8°
